Time,TemperatureF,DewpointF,PressureIn,WindDirection,WindDirectionDegrees,WindSpeedMPH,WindSpeedGustMPH,Humidity,HourlyPrecipIn,Conditions,Clouds,dailyrainin,SoftwareType,DateUTC
2013-06-03 00:05:00,67.1,-99.9,0.00,South,180,0.0,0.0,-99,0.00,NA,NA,-99.99,WeatherLink_script,2013-06-03 04:05:00,
2013-06-03 00:10:00,67.1,-99.9,0.00,South,180,0.0,0.0,-99,0.00,NA,NA,-99.99,WeatherLink_script,2013-06-03 04:10:00,
2013-06-03 00:16:00,67.1,-99.9,0.00,South,180,0.0,0.0,-99,0.00,NA,NA,-99.99,WeatherLink_script,2013-06-03 04:16:00,
2013-06-03 00:21:00,67.1,-99.9,0.00,South,180,0.0,0.0,-99,0.00,NA,NA,-99.99,WeatherLink_script,2013-06-03 04:21:00,
2013-06-03 00:27:00,67.1,-99.9,0.00,South,180,0.0,0.0,-99,0.00,NA,NA,-99.99,WeatherLink_script,2013-06-03 04:27:00,
2013-06-03 00:32:00,67.1,-99.9,0.00,South,180,0.0,0.0,-99,0.00,NA,NA,-99.99,WeatherLink_script,2013-06-03 04:32:00,
2013-06-03 00:37:00,67.1,-99.9,0.00,South,180,0.0,0.0,-99,0.00,NA,NA,-99.99,WeatherLink_script,2013-06-03 04:37:00,
2013-06-03 00:43:00,67.1,-99.9,0.00,South,180,0.0,0.0,-99,0.00,NA,NA,-99.99,WeatherLink_script,2013-06-03 04:43:00,
2013-06-03 00:48:00,57.9,-99.9,0.00,South,180,0.1,0.0,-100,0.00,NA,NA,-99.99,WeatherLink_script,2013-06-03 04:48:00,
2013-06-03 00:53:00,57.7,-99.9,0.00,South,180,0.0,0.0,-100,0.00,NA,NA,-99.99,WeatherLink_script,2013-06-03 04:53:00,
2013-06-03 00:58:00,57.6,-99.9,0.00,South,180,0.0,0.0,-100,0.00,NA,NA,-99.99,WeatherLink_script,2013-06-03 04:58:00,
2013-06-03 01:03:00,57.8,-99.9,0.00,South,180,0.0,0.0,-100,0.00,NA,NA,-99.99,WeatherLink_script,2013-06-03 05:03:00,
2013-06-03 01:09:00,58.3,-99.9,0.00,South,180,0.1,1.0,-100,0.00,NA,NA,-99.99,WeatherLink_script,2013-06-03 05:09:00,
2013-06-03 01:14:00,57.8,-99.9,0.00,South,180,0.1,1.0,-100,0.00,NA,NA,-99.99,WeatherLink_script,2013-06-03 05:14:00,
2013-06-03 01:19:00,57.3,-99.9,0.00,South,180,0.0,1.0,-100,0.00,NA,NA,-99.99,WeatherLink_script,2013-06-03 05:19:00,
2013-06-03 01:25:00,57.1,-99.9,0.00,South,180,0.5,0.0,-100,0.00,NA,NA,-99.99,WeatherLink_script,2013-06-03 05:25:00,
2013-06-03 01:30:00,56.8,-99.9,0.00,South,180,0.1,1.0,-100,0.00,NA,NA,-99.99,WeatherLink_script,2013-06-03 05:30:00,
2013-06-03 01:35:00,57.0,-99.9,0.00,South,180,0.2,1.0,-100,0.00,NA,NA,-99.99,WeatherLink_script,2013-06-03 05:35:00,
2013-06-03 01:41:00,56.9,-99.9,0.00,South,180,0.0,1.0,-100,0.00,NA,NA,-99.99,WeatherLink_script,2013-06-03 05:41:00,
2013-06-03 01:49:00,56.9,-99.9,0.00,South,180,0.0,0.0,-100,0.00,NA,NA,-99.99,WeatherLink_script,2013-06-03 05:49:00,
2013-06-03 01:54:00,57.1,-99.9,0.00,South,180,0.0,0.0,-100,0.00,NA,NA,-99.99,WeatherLink_script,2013-06-03 05:54:00,
2013-06-03 01:59:00,57.3,-99.9,0.00,South,180,0.0,0.0,-100,0.00,NA,NA,-99.99,WeatherLink_script,2013-06-03 05:59:00,
2013-06-03 02:04:00,57.8,-99.9,0.00,South,180,0.0,0.0,-100,0.00,NA,NA,-99.99,WeatherLink_script,2013-06-03 06:04:00,
2013-06-03 02:10:00,56.9,-99.9,0.00,South,180,0.0,0.0,-100,0.00,NA,NA,-99.99,WeatherLink_script,2013-06-03 06:10:00,
2013-06-03 02:15:00,57.1,-99.9,0.00,South,180,0.0,0.0,-100,0.00,NA,NA,-99.99,WeatherLink_script,2013-06-03 06:15:00,
2013-06-03 02:21:00,57.6,-99.9,0.00,South,180,0.0,0.0,-100,0.00,NA,NA,-99.99,WeatherLink_script,2013-06-03 06:21:00,
2013-06-03 02:26:00,57.9,-99.9,0.00,South,180,0.0,0.0,-100,0.00,NA,NA,-99.99,WeatherLink_script,2013-06-03 06:26:00,
2013-06-03 02:31:00,57.9,-99.9,0.00,South,180,0.0,0.0,-100,0.00,NA,NA,-99.99,WeatherLink_script,2013-06-03 06:31:00,
2013-06-03 02:37:00,57.8,-99.9,0.00,South,180,0.0,0.0,-100,0.00,NA,NA,-99.99,WeatherLink_script,2013-06-03 06:37:00,
2013-06-03 02:42:00,58.2,-99.9,0.00,South,180,0.0,0.0,-100,0.00,NA,NA,-99.99,WeatherLink_script,2013-06-03 06:42:00,
2013-06-03 02:47:00,57.6,-99.9,0.00,South,180,0.0,0.0,-100,0.00,NA,NA,-99.99,WeatherLink_script,2013-06-03 06:47:00,
2013-06-03 02:53:00,57.4,-99.9,0.00,South,180,0.0,0.0,-100,0.00,NA,NA,-99.99,WeatherLink_script,2013-06-03 06:53:00,
2013-06-03 02:58:00,57.4,-99.9,0.00,South,180,0.0,0.0,-100,0.00,NA,NA,-99.99,WeatherLink_script,2013-06-03 06:58:00,
2013-06-03 03:03:00,57.0,-99.9,0.00,South,180,0.0,0.0,-100,0.00,NA,NA,-99.99,WeatherLink_script,2013-06-03 07:03:00,
2013-06-03 03:09:00,57.0,-99.9,0.00,South,180,0.0,0.0,-100,0.00,NA,NA,-99.99,WeatherLink_script,2013-06-03 07:09:00,
2013-06-03 03:14:00,56.3,-99.9,0.00,South,180,0.0,0.0,-100,0.00,NA,NA,-99.99,WeatherLink_script,2013-06-03 07:14:00,
2013-06-03 03:19:00,55.6,-99.9,0.00,South,180,0.0,0.0,-100,0.00,NA,NA,-99.99,WeatherLink_script,2013-06-03 07:19:00,
2013-06-03 03:25:00,55.5,-99.9,0.00,South,180,0.0,0.0,-100,0.00,NA,NA,-99.99,WeatherLink_script,2013-06-03 07:25:00,
2013-06-03 03:30:00,55.6,-99.9,0.00,South,180,0.0,0.0,-100,0.00,NA,NA,-99.99,WeatherLink_script,2013-06-03 07:30:00,
2013-06-03 03:35:00,55.2,-99.9,0.00,South,180,0.0,0.0,-100,0.00,NA,NA,-99.99,WeatherLink_script,2013-06-03 07:35:00,
2013-06-03 03:40:00,55.5,-99.9,0.00,South,180,0.0,0.0,-100,0.00,NA,NA,-99.99,WeatherLink_script,2013-06-03 07:40:00,
2013-06-03 03:46:00,55.5,-99.9,0.00,South,180,0.0,0.0,-100,0.00,NA,NA,-99.99,WeatherLink_script,2013-06-03 07:46:00,
2013-06-03 03:51:00,55.4,-99.9,0.00,South,180,0.0,0.0,-100,0.00,NA,NA,-99.99,WeatherLink_script,2013-06-03 07:51:00,
2013-06-03 03:57:00,55.1,-99.9,0.00,South,180,1.5,2.0,-100,0.00,NA,NA,-99.99,WeatherLink_script,2013-06-03 07:57:00,
2013-06-03 04:02:00,55.3,-99.9,0.00,South,180,0.0,2.0,-100,0.00,NA,NA,-99.99,WeatherLink_script,2013-06-03 08:02:00,
2013-06-03 04:08:00,55.3,-99.9,0.00,South,180,0.4,2.0,-100,0.00,NA,NA,-99.99,WeatherLink_script,2013-06-03 08:08:00,
2013-06-03 04:13:00,55.3,-99.9,0.00,South,180,0.2,2.0,-100,0.00,NA,NA,-99.99,WeatherLink_script,2013-06-03 08:13:00,
2013-06-03 04:18:00,55.3,-99.9,0.00,South,180,0.1,2.0,-100,0.00,NA,NA,-99.99,WeatherLink_script,2013-06-03 08:18:00,
2013-06-03 04:24:00,55.3,-99.9,0.00,South,180,0.1,2.0,-100,0.00,NA,NA,-99.99,WeatherLink_script,2013-06-03 08:24:00,
2013-06-03 04:29:00,55.3,-99.9,0.00,South,180,0.1,2.0,-100,0.00,NA,NA,-99.99,WeatherLink_script,2013-06-03 08:29:00,
2013-06-03 04:34:00,55.3,-99.9,0.00,South,180,0.1,2.0,-100,0.00,NA,NA,-99.99,WeatherLink_script,2013-06-03 08:34:00,
2013-06-03 04:40:00,55.3,-99.9,0.00,South,180,0.1,2.0,-100,0.00,NA,NA,-99.99,WeatherLink_script,2013-06-03 08:40:00,
2013-06-03 04:45:00,55.1,-99.9,0.00,South,180,0.0,0.0,-100,0.00,NA,NA,-99.99,WeatherLink_script,2013-06-03 08:45:00,
2013-06-03 04:50:00,55.1,-99.9,0.00,South,180,0.0,0.0,-100,0.00,NA,NA,-99.99,WeatherLink_script,2013-06-03 08:50:00,
2013-06-03 04:56:00,55.1,-99.9,0.00,South,180,0.0,0.0,-100,0.00,NA,NA,-99.99,WeatherLink_script,2013-06-03 08:56:00,
2013-06-03 05:04:00,55.1,-99.9,0.00,South,180,0.0,0.0,-100,0.00,NA,NA,-99.99,WeatherLink_script,2013-06-03 09:04:00,
2013-06-03 05:09:00,55.1,-99.9,0.00,South,180,0.0,0.0,-100,0.00,NA,NA,-99.99,WeatherLink_script,2013-06-03 09:09:00,
2013-06-03 05:14:00,55.0,-99.9,0.00,South,180,0.0,0.0,-100,0.00,NA,NA,-99.99,WeatherLink_script,2013-06-03 09:14:00,
2013-06-03 05:19:00,55.0,-99.9,0.00,South,180,0.0,0.0,-100,0.00,NA,NA,-99.99,WeatherLink_script,2013-06-03 09:19:00,
2013-06-03 05:25:00,55.2,-99.9,0.00,South,180,0.0,0.0,-100,0.00,NA,NA,-99.99,WeatherLink_script,2013-06-03 09:25:00,
2013-06-03 05:30:00,55.2,-99.9,0.00,South,180,0.0,0.0,-100,0.00,NA,NA,-99.99,WeatherLink_script,2013-06-03 09:30:00,
2013-06-03 05:35:00,54.6,-99.9,0.00,South,180,0.0,0.0,-100,0.00,NA,NA,-99.99,WeatherLink_script,2013-06-03 09:35:00,
2013-06-03 05:41:00,54.6,-99.9,0.00,South,180,0.0,0.0,-100,0.00,NA,NA,-99.99,WeatherLink_script,2013-06-03 09:41:00,
2013-06-03 05:46:00,54.6,-99.9,0.00,South,180,0.0,0.0,-100,0.00,NA,NA,-99.99,WeatherLink_script,2013-06-03 09:46:00,
2013-06-03 05:51:00,54.6,-99.9,0.00,South,180,0.0,0.0,-100,0.00,NA,NA,-99.99,WeatherLink_script,2013-06-03 09:51:00,
2013-06-03 05:56:00,54.6,-99.9,0.00,South,180,0.0,0.0,-100,0.00,NA,NA,-99.99,WeatherLink_script,2013-06-03 09:56:00,
2013-06-03 06:02:00,54.8,-99.9,0.00,South,180,0.0,0.0,-100,0.00,NA,NA,-99.99,WeatherLink_script,2013-06-03 10:02:00,
2013-06-03 06:07:00,54.9,-99.9,0.00,South,180,0.0,0.0,-100,0.00,NA,NA,-99.99,WeatherLink_script,2013-06-03 10:07:00,
2013-06-03 06:12:00,55.2,-99.9,0.00,South,180,0.0,0.0,-100,0.00,NA,NA,-99.99,WeatherLink_script,2013-06-03 10:12:00,
2013-06-03 06:18:00,55.4,-99.9,0.00,South,180,0.0,0.0,-100,0.00,NA,NA,-99.99,WeatherLink_script,2013-06-03 10:18:00,
2013-06-03 06:23:00,55.5,-99.9,0.00,South,180,0.0,0.0,-100,0.00,NA,NA,-99.99,WeatherLink_script,2013-06-03 10:23:00,
2013-06-03 06:28:00,55.9,-99.9,0.00,South,180,0.0,0.0,-100,0.00,NA,NA,-99.99,WeatherLink_script,2013-06-03 10:28:00,
2013-06-03 06:34:00,56.3,-99.9,0.00,South,180,0.0,0.0,-100,0.00,NA,NA,-99.99,WeatherLink_script,2013-06-03 10:34:00,
2013-06-03 06:39:00,57.3,-99.9,0.00,South,180,0.0,0.0,-100,0.00,NA,NA,-99.99,WeatherLink_script,2013-06-03 10:39:00,
2013-06-03 06:44:00,58.1,-99.9,0.00,South,180,0.0,0.0,-100,0.00,NA,NA,-99.99,WeatherLink_script,2013-06-03 10:44:00,
2013-06-03 06:50:00,58.3,-99.9,0.00,South,180,0.1,0.0,-100,0.00,NA,NA,-99.99,WeatherLink_script,2013-06-03 10:50:00,
2013-06-03 06:55:00,59.5,-99.9,0.00,South,180,0.1,0.0,-100,0.00,NA,NA,-99.99,WeatherLink_script,2013-06-03 10:55:00,
2013-06-03 07:00:00,60.3,-99.9,0.00,South,180,0.0,1.0,-100,0.00,NA,NA,-99.99,WeatherLink_script,2013-06-03 11:00:00,
2013-06-03 07:06:00,60.9,-99.9,0.00,South,180,0.0,1.0,-100,0.00,NA,NA,-99.99,WeatherLink_script,2013-06-03 11:06:00,
2013-06-03 07:14:00,62.2,-99.9,0.00,South,180,0.0,1.0,-100,0.00,NA,NA,-99.99,WeatherLink_script,2013-06-03 11:14:00,
2013-06-03 07:19:00,63.0,-99.9,0.00,South,180,0.1,0.0,-100,0.00,NA,NA,-99.99,WeatherLink_script,2013-06-03 11:19:00,
2013-06-03 07:24:00,66.2,-99.9,0.00,South,180,0.0,0.0,-100,0.00,NA,NA,-99.99,WeatherLink_script,2013-06-03 11:24:00,
2013-06-03 07:30:00,67.7,-99.9,0.00,South,180,0.1,0.0,-100,0.00,NA,NA,-99.99,WeatherLink_script,2013-06-03 11:30:00,
2013-06-03 07:35:00,64.9,-99.9,0.00,South,180,1.1,3.0,-100,0.00,NA,NA,-99.99,WeatherLink_script,2013-06-03 11:35:00,
2013-06-03 07:40:00,66.8,-99.9,0.00,South,180,0.3,3.0,-100,0.00,NA,NA,-99.99,WeatherLink_script,2013-06-03 11:40:00,
2013-06-03 07:45:00,70.8,-99.9,0.00,South,180,0.0,3.0,-100,0.00,NA,NA,-99.99,WeatherLink_script,2013-06-03 11:45:00,
2013-06-03 07:51:00,71.6,-99.9,0.00,South,180,0.2,0.0,-100,0.00,NA,NA,-99.99,WeatherLink_script,2013-06-03 11:51:00,
2013-06-03 07:56:00,70.5,-99.9,0.00,South,180,0.3,2.0,-100,0.00,NA,NA,-99.99,WeatherLink_script,2013-06-03 11:56:00,
2013-06-03 08:01:00,68.6,-99.9,0.00,South,180,0.9,2.0,-100,0.00,NA,NA,-99.99,WeatherLink_script,2013-06-03 12:01:00,
2013-06-03 08:09:00,70.0,-99.9,0.00,South,180,0.0,2.0,-100,0.00,NA,NA,-99.99,WeatherLink_script,2013-06-03 12:09:00,
2013-06-03 08:15:00,70.3,-99.9,0.00,South,180,0.3,2.0,-100,0.00,NA,NA,-99.99,WeatherLink_script,2013-06-03 12:15:00,
2013-06-03 08:20:00,71.3,-99.9,0.00,South,180,0.1,1.0,-100,0.00,NA,NA,-99.99,WeatherLink_script,2013-06-03 12:20:00,
2013-06-03 08:25:00,72.2,-99.9,0.00,South,180,0.0,1.0,-100,0.00,NA,NA,-99.99,WeatherLink_script,2013-06-03 12:25:00,
2013-06-03 08:30:00,72.7,-99.9,0.00,South,180,0.1,2.0,-100,0.00,NA,NA,-99.99,WeatherLink_script,2013-06-03 12:30:00,
2013-06-03 08:36:00,76.0,-99.9,0.00,South,180,0.7,2.0,-100,0.00,NA,NA,-99.99,WeatherLink_script,2013-06-03 12:36:00,
2013-06-03 08:42:00,73.6,-99.9,0.00,South,180,1.3,3.0,-100,0.00,NA,NA,-99.99,WeatherLink_script,2013-06-03 12:42:00,
2013-06-03 08:47:00,76.5,-99.9,0.00,South,180,0.8,3.0,-100,0.00,NA,NA,-99.99,WeatherLink_script,2013-06-03 12:47:00,
2013-06-03 08:52:00,77.2,-99.9,0.00,South,180,0.1,3.0,-100,0.00,NA,NA,-99.99,WeatherLink_script,2013-06-03 12:52:00,
2013-06-03 08:57:00,73.2,-99.9,0.00,South,180,0.7,2.0,-100,0.00,NA,NA,-99.99,WeatherLink_script,2013-06-03 12:57:00,
2013-06-03 09:03:00,73.9,-99.9,0.00,South,180,1.2,2.0,-100,0.00,NA,NA,-99.99,WeatherLink_script,2013-06-03 13:03:00,
2013-06-03 09:08:00,73.6,-99.9,0.00,South,180,0.9,2.0,-100,0.00,NA,NA,-99.99,WeatherLink_script,2013-06-03 13:08:00,
2013-06-03 09:13:00,75.5,-99.9,0.00,South,180,0.6,3.0,-100,0.00,NA,NA,-99.99,WeatherLink_script,2013-06-03 13:13:00,
2013-06-03 09:19:00,75.8,-99.9,0.00,South,180,0.5,3.0,-100,0.00,NA,NA,-99.99,WeatherLink_script,2013-06-03 13:19:00,
2013-06-03 09:24:00,76.3,-99.9,0.00,South,180,0.8,3.0,-100,0.00,NA,NA,-99.99,WeatherLink_script,2013-06-03 13:24:00,
2013-06-03 09:29:00,75.8,-99.9,0.00,South,180,1.0,1.0,-100,0.00,NA,NA,-99.99,WeatherLink_script,2013-06-03 13:29:00,
2013-06-03 09:35:00,74.0,-99.9,0.00,South,180,0.2,2.0,-100,0.00,NA,NA,-99.99,WeatherLink_script,2013-06-03 13:35:00,
2013-06-03 09:40:00,76.4,-99.9,0.00,South,180,0.6,3.0,-100,0.00,NA,NA,-99.99,WeatherLink_script,2013-06-03 13:40:00,
2013-06-03 09:45:00,74.9,-99.9,0.00,South,180,0.8,3.0,-100,0.00,NA,NA,-99.99,WeatherLink_script,2013-06-03 13:45:00,
2013-06-03 09:50:00,74.2,-99.9,0.00,South,180,0.8,3.0,-100,0.00,NA,NA,-99.99,WeatherLink_script,2013-06-03 13:50:00,
2013-06-03 09:56:00,75.9,-99.9,0.00,South,180,1.2,3.0,-100,0.00,NA,NA,-99.99,WeatherLink_script,2013-06-03 13:56:00,
2013-06-03 10:04:00,71.8,-99.9,0.00,South,180,2.0,3.0,-100,0.00,NA,NA,-99.99,WeatherLink_script,2013-06-03 14:04:00,
2013-06-03 10:09:00,69.5,-99.9,0.00,South,180,1.8,5.0,-100,0.00,NA,NA,-99.99,WeatherLink_script,2013-06-03 14:09:00,
2013-06-03 10:14:00,73.5,-99.9,0.00,South,180,0.9,5.0,-100,0.00,NA,NA,-99.99,WeatherLink_script,2013-06-03 14:14:00,
2013-06-03 10:19:00,77.2,-99.9,0.00,South,180,2.1,5.0,-100,0.00,NA,NA,-99.99,WeatherLink_script,2013-06-03 14:19:00,
2013-06-03 10:25:00,74.3,-99.9,0.00,South,180,0.6,4.0,-100,0.00,NA,NA,-99.99,WeatherLink_script,2013-06-03 14:25:00,
2013-06-03 10:30:00,74.9,-99.9,0.00,South,180,1.5,4.0,-100,0.00,NA,NA,-99.99,WeatherLink_script,2013-06-03 14:30:00,
2013-06-03 10:35:00,77.2,-99.9,0.00,South,180,3.2,5.0,-100,0.00,NA,NA,-99.99,WeatherLink_script,2013-06-03 14:35:00,
2013-06-03 10:41:00,72.9,-99.9,0.00,South,180,1.6,5.0,-100,0.00,NA,NA,-99.99,WeatherLink_script,2013-06-03 14:41:00,
2013-06-03 10:46:00,77.9,-99.9,0.00,South,180,0.5,5.0,-100,0.00,NA,NA,-99.99,WeatherLink_script,2013-06-03 14:46:00,
2013-06-03 10:51:00,74.8,-99.9,0.00,South,180,3.3,4.0,-100,0.00,NA,NA,-99.99,WeatherLink_script,2013-06-03 14:51:00,
2013-06-03 10:57:00,77.4,-99.9,0.00,South,180,3.6,6.0,-100,0.00,NA,NA,-99.99,WeatherLink_script,2013-06-03 14:57:00,
2013-06-03 11:02:00,74.0,-99.9,0.00,South,180,3.9,8.0,-100,0.00,NA,NA,-99.99,WeatherLink_script,2013-06-03 15:02:00,
2013-06-03 11:07:00,71.7,-99.9,0.00,South,180,4.1,8.0,-100,0.00,NA,NA,-99.99,WeatherLink_script,2013-06-03 15:07:00,
2013-06-03 11:13:00,73.7,-99.9,0.00,South,180,1.1,8.0,-100,0.00,NA,NA,-99.99,WeatherLink_script,2013-06-03 15:13:00,
2013-06-03 11:18:00,77.3,-99.9,0.00,South,180,0.4,8.0,-100,0.00,NA,NA,-99.99,WeatherLink_script,2013-06-03 15:18:00,
2013-06-03 11:23:00,76.2,-99.9,0.00,South,180,1.9,5.0,-100,0.00,NA,NA,-99.99,WeatherLink_script,2013-06-03 15:23:00,
2013-06-03 11:28:00,76.4,-99.9,0.00,South,180,1.4,5.0,-100,0.00,NA,NA,-99.99,WeatherLink_script,2013-06-03 15:28:00,
2013-06-03 11:34:00,73.1,-99.9,0.00,South,180,2.6,5.0,-100,0.00,NA,NA,-99.99,WeatherLink_script,2013-06-03 15:34:00,
2013-06-03 11:39:00,75.4,-99.9,0.00,South,180,1.9,5.0,-100,0.00,NA,NA,-99.99,WeatherLink_script,2013-06-03 15:39:00,
2013-06-03 11:44:00,75.2,-99.9,0.00,South,180,2.7,5.0,-100,0.00,NA,NA,-99.99,WeatherLink_script,2013-06-03 15:44:00,
2013-06-03 11:50:00,72.0,-99.9,0.00,South,180,1.9,7.0,-100,0.00,NA,NA,-99.99,WeatherLink_script,2013-06-03 15:50:00,
2013-06-03 11:55:00,71.2,-99.9,0.00,South,180,1.7,7.0,-100,0.00,NA,NA,-99.99,WeatherLink_script,2013-06-03 15:55:00,
2013-06-03 12:00:00,75.6,-99.9,0.00,South,180,0.7,7.0,-100,0.00,NA,NA,-99.99,WeatherLink_script,2013-06-03 16:00:00,
2013-06-03 12:06:00,76.8,-99.9,0.00,South,180,1.0,2.0,-100,0.00,NA,NA,-99.99,WeatherLink_script,2013-06-03 16:06:00,
2013-06-03 12:11:00,78.8,-99.9,0.00,South,180,3.0,5.0,-100,0.00,NA,NA,-99.99,WeatherLink_script,2013-06-03 16:11:00,
2013-06-03 12:16:00,79.8,-99.9,0.00,South,180,1.8,5.0,-100,0.00,NA,NA,-99.99,WeatherLink_script,2013-06-03 16:16:00,
2013-06-03 12:21:00,75.4,-99.9,0.00,South,180,0.8,5.0,-100,0.00,NA,NA,-99.99,WeatherLink_script,2013-06-03 16:21:00,
2013-06-03 12:27:00,74.3,-99.9,0.00,South,180,0.8,5.0,-100,0.00,NA,NA,-99.99,WeatherLink_script,2013-06-03 16:27:00,
2013-06-03 12:32:00,74.1,-99.9,0.00,South,180,1.4,3.0,-100,0.00,NA,NA,-99.99,WeatherLink_script,2013-06-03 16:32:00,
2013-06-03 12:37:00,72.7,-99.9,0.00,South,180,1.2,4.0,-100,0.00,NA,NA,-99.99,WeatherLink_script,2013-06-03 16:37:00,
2013-06-03 12:43:00,71.7,-99.9,0.00,South,180,2.3,5.0,-100,0.00,NA,NA,-99.99,WeatherLink_script,2013-06-03 16:43:00,
2013-06-03 12:48:00,71.2,-99.9,0.00,South,180,1.4,5.0,-100,0.00,NA,NA,-99.99,WeatherLink_script,2013-06-03 16:48:00,
2013-06-03 12:53:00,72.2,-99.9,0.00,South,180,1.7,5.0,-100,0.00,NA,NA,-99.99,WeatherLink_script,2013-06-03 16:53:00,
2013-06-03 12:58:00,71.2,-99.9,0.00,South,180,0.7,5.0,-100,0.00,NA,NA,-99.99,WeatherLink_script,2013-06-03 16:58:00,
2013-06-03 13:04:00,76.1,-99.9,0.00,South,180,1.3,2.0,-100,0.00,NA,NA,-99.99,WeatherLink_script,2013-06-03 17:04:00,
2013-06-03 13:09:00,77.5,-99.9,0.00,South,180,1.3,4.0,-100,0.00,NA,NA,-99.99,WeatherLink_script,2013-06-03 17:09:00,
2013-06-03 13:14:00,79.4,-99.9,0.00,South,180,2.5,5.0,-100,0.00,NA,NA,-99.99,WeatherLink_script,2013-06-03 17:14:00,
2013-06-03 13:20:00,79.6,-99.9,0.00,South,180,2.5,6.0,-100,0.00,NA,NA,-99.99,WeatherLink_script,2013-06-03 17:20:00,
2013-06-03 13:25:00,77.9,-99.9,0.00,South,180,2.8,6.0,-100,0.00,NA,NA,-99.99,WeatherLink_script,2013-06-03 17:25:00,
2013-06-03 13:30:00,79.0,-99.9,0.00,South,180,1.5,6.0,-100,0.00,NA,NA,-99.99,WeatherLink_script,2013-06-03 17:30:00,
2013-06-03 13:36:00,77.1,-99.9,0.00,South,180,2.7,6.0,-100,0.00,NA,NA,-99.99,WeatherLink_script,2013-06-03 17:36:00,
2013-06-03 13:41:00,73.0,-99.9,0.00,South,180,2.2,9.0,-100,0.00,NA,NA,-99.99,WeatherLink_script,2013-06-03 17:41:00,
2013-06-03 13:47:00,74.6,-99.9,0.00,South,180,1.3,9.0,-100,0.00,NA,NA,-99.99,WeatherLink_script,2013-06-03 17:47:00,
2013-06-03 13:52:00,78.8,-99.9,0.00,South,180,2.5,9.0,-100,0.00,NA,NA,-99.99,WeatherLink_script,2013-06-03 17:52:00,
2013-06-03 13:57:00,79.8,-99.9,0.00,South,180,1.5,4.0,-100,0.00,NA,NA,-99.99,WeatherLink_script,2013-06-03 17:57:00,
2013-06-03 14:03:00,75.5,-99.9,0.00,South,180,1.8,5.0,-100,0.00,NA,NA,-99.99,WeatherLink_script,2013-06-03 18:03:00,
2013-06-03 14:08:00,75.8,-99.9,0.00,South,180,3.0,6.0,-100,0.00,NA,NA,-99.99,WeatherLink_script,2013-06-03 18:08:00,
2013-06-03 14:13:00,77.7,-99.9,0.00,South,180,3.4,6.0,-100,0.00,NA,NA,-99.99,WeatherLink_script,2013-06-03 18:13:00,
2013-06-03 14:19:00,75.8,-99.9,0.00,South,180,0.6,6.0,-100,0.00,NA,NA,-99.99,WeatherLink_script,2013-06-03 18:19:00,
2013-06-03 14:24:00,77.9,-99.9,0.00,South,180,3.1,4.0,-100,0.00,NA,NA,-99.99,WeatherLink_script,2013-06-03 18:24:00,
2013-06-03 14:29:00,72.9,-99.9,0.00,South,180,2.7,4.0,-100,0.00,NA,NA,-99.99,WeatherLink_script,2013-06-03 18:29:00,
2013-06-03 14:35:00,75.8,-99.9,0.00,South,180,1.9,4.0,-100,0.00,NA,NA,-99.99,WeatherLink_script,2013-06-03 18:35:00,
2013-06-03 14:40:00,73.1,-99.9,0.00,South,180,2.0,5.0,-100,0.00,NA,NA,-99.99,WeatherLink_script,2013-06-03 18:40:00,
2013-06-03 14:45:00,75.7,-99.9,0.00,South,180,3.1,6.0,-100,0.00,NA,NA,-99.99,WeatherLink_script,2013-06-03 18:45:00,
2013-06-03 14:51:00,76.0,-99.9,0.00,South,180,3.2,6.0,-100,0.00,NA,NA,-99.99,WeatherLink_script,2013-06-03 18:51:00,
2013-06-03 14:59:00,72.8,-99.9,0.00,South,180,1.0,9.0,-100,0.00,NA,NA,-99.99,WeatherLink_script,2013-06-03 18:59:00,
2013-06-03 15:04:00,77.9,-99.9,0.00,South,180,1.7,9.0,-100,0.00,NA,NA,-99.99,WeatherLink_script,2013-06-03 19:04:00,
2013-06-03 15:10:00,78.4,-99.9,0.00,South,180,1.1,9.0,-100,0.00,NA,NA,-99.99,WeatherLink_script,2013-06-03 19:10:00,
2013-06-03 15:15:00,78.4,-99.9,0.00,South,180,1.1,9.0,-100,0.00,NA,NA,-99.99,WeatherLink_script,2013-06-03 19:15:00,
2013-06-03 15:20:00,78.4,-99.9,0.00,South,180,1.1,9.0,-100,0.00,NA,NA,-99.99,WeatherLink_script,2013-06-03 19:20:00,
2013-06-03 15:26:00,78.4,-99.9,0.00,South,180,1.1,9.0,-100,0.00,NA,NA,-99.99,WeatherLink_script,2013-06-03 19:26:00,
2013-06-03 15:31:00,78.4,-99.9,0.00,South,180,1.1,9.0,-100,0.00,NA,NA,-99.99,WeatherLink_script,2013-06-03 19:31:00,
2013-06-03 15:36:00,78.4,-99.9,0.00,South,180,1.1,9.0,-100,0.00,NA,NA,-99.99,WeatherLink_script,2013-06-03 19:36:00,
2013-06-03 15:42:00,78.4,-99.9,0.00,South,180,1.1,9.0,-100,0.00,NA,NA,-99.99,WeatherLink_script,2013-06-03 19:42:00,
2013-06-03 15:47:00,78.4,-99.9,0.00,South,180,1.1,9.0,-100,0.00,NA,NA,-99.99,WeatherLink_script,2013-06-03 19:47:00,
2013-06-03 15:52:00,78.4,-99.9,0.00,South,180,1.1,9.0,-100,0.00,NA,NA,-99.99,WeatherLink_script,2013-06-03 19:52:00,
2013-06-03 15:58:00,78.4,-99.9,0.00,South,180,1.1,9.0,-100,0.00,NA,NA,-99.99,WeatherLink_script,2013-06-03 19:58:00,
2013-06-03 16:03:00,78.4,-99.9,0.00,South,180,1.1,9.0,-100,0.00,NA,NA,-99.99,WeatherLink_script,2013-06-03 20:03:00,
2013-06-03 16:05:00,78.4,-99.9,0.00,South,180,1.1,9.0,-100,0.00,NA,NA,-99.99,WeatherLink_script,2013-06-03 20:05:00,
2013-06-03 16:08:00,78.4,-99.9,0.00,South,180,1.1,9.0,-100,0.00,NA,NA,-99.99,WeatherLink_script,2013-06-03 20:08:00,
2013-06-03 16:13:00,78.4,-99.9,0.00,South,180,1.1,9.0,-100,0.00,NA,NA,-99.99,WeatherLink_script,2013-06-03 20:13:00,
2013-06-03 17:49:00,73.0,50.5,0.00,South,180,0.7,9.0,17,0.00,NA,NA,-99.99,WeatherLink_script,2013-06-03 21:49:00,
2013-06-03 17:54:00,73.3,-99.9,0.00,South,180,0.6,3.0,-18,0.00,NA,NA,-99.99,WeatherLink_script,2013-06-03 21:54:00,
2013-06-03 17:59:00,72.7,-99.9,0.00,South,180,3.0,8.0,-31,0.00,NA,NA,-99.99,WeatherLink_script,2013-06-03 21:59:00,
2013-06-03 18:05:00,72.9,-99.9,0.00,South,180,1.1,8.0,-35,0.00,NA,NA,-99.99,WeatherLink_script,2013-06-03 22:05:00,
2013-06-03 18:10:00,69.9,-99.9,0.00,South,180,2.8,8.0,-60,0.00,NA,NA,-99.99,WeatherLink_script,2013-06-03 22:10:00,
2013-06-03 18:15:00,70.8,-99.9,0.00,South,180,2.9,5.0,-75,0.00,NA,NA,-99.99,WeatherLink_script,2013-06-03 22:15:00,
2013-06-03 18:21:00,71.5,-99.9,0.00,South,180,1.4,5.0,-96,0.00,NA,NA,-99.99,WeatherLink_script,2013-06-03 22:21:00,
2013-06-03 18:27:00,71.5,-99.9,0.00,South,180,5.3,11.0,-99,0.00,NA,NA,-99.99,WeatherLink_script,2013-06-03 22:27:00,
2013-06-03 18:32:00,69.2,-99.9,0.00,South,180,2.4,11.0,-89,0.00,NA,NA,-99.99,WeatherLink_script,2013-06-03 22:32:00,
2013-06-03 18:37:00,69.3,-99.9,0.00,South,180,1.2,11.0,-92,0.00,NA,NA,-99.99,WeatherLink_script,2013-06-03 22:37:00,
2013-06-03 18:43:00,69.9,-99.9,0.00,South,180,1.5,11.0,-79,0.00,NA,NA,-99.99,WeatherLink_script,2013-06-03 22:43:00,
2013-06-03 18:48:00,71.2,-99.9,0.00,South,180,1.7,4.0,-82,0.00,NA,NA,-99.99,WeatherLink_script,2013-06-03 22:48:00,
2013-06-03 18:53:00,70.7,-99.9,0.00,South,180,1.3,4.0,-46,0.00,NA,NA,-99.99,WeatherLink_script,2013-06-03 22:53:00,
2013-06-03 18:58:00,70.8,-99.9,0.00,South,180,0.1,4.0,-82,0.00,NA,NA,-99.99,WeatherLink_script,2013-06-03 22:58:00,
2013-06-03 19:04:00,69.2,-99.9,0.00,South,180,3.2,5.0,-53,0.00,NA,NA,-99.99,WeatherLink_script,2013-06-03 23:04:00,
2013-06-03 19:09:00,66.9,-99.9,0.00,South,180,0.5,5.0,-24,0.00,NA,NA,-99.99,WeatherLink_script,2013-06-03 23:09:00,
2013-06-03 19:14:00,66.4,-99.9,0.00,South,180,1.2,5.0,-25,0.00,NA,NA,-99.99,WeatherLink_script,2013-06-03 23:14:00,
2013-06-03 19:20:00,66.2,-99.9,0.00,South,180,0.8,2.0,-48,0.00,NA,NA,-99.99,WeatherLink_script,2013-06-03 23:20:00,
2013-06-03 19:25:00,65.8,-99.9,0.00,South,180,1.1,2.0,-42,0.00,NA,NA,-99.99,WeatherLink_script,2013-06-03 23:25:00,
2013-06-03 19:30:00,65.2,-99.9,0.00,South,180,0.6,2.0,-52,0.00,NA,NA,-99.99,WeatherLink_script,2013-06-03 23:30:00,
2013-06-03 19:35:00,64.7,-99.9,0.00,South,180,0.1,2.0,-40,0.00,NA,NA,-99.99,WeatherLink_script,2013-06-03 23:35:00,
2013-06-03 19:41:00,64.2,29.5,0.00,South,180,0.2,2.0,5,0.00,NA,NA,-99.99,WeatherLink_script,2013-06-03 23:41:00,
2013-06-03 19:46:00,64.0,-78.9,0.00,South,180,0.8,4.0,-12,0.00,NA,NA,-99.99,WeatherLink_script,2013-06-03 23:46:00,
2013-06-03 19:52:00,63.2,-99.9,0.00,South,180,0.3,4.0,-17,0.00,NA,NA,-99.99,WeatherLink_script,2013-06-03 23:52:00,
2013-06-03 19:57:00,62.2,-99.9,0.00,South,180,0.0,4.0,-29,0.00,NA,NA,-99.99,WeatherLink_script,2013-06-03 23:57:00,
2013-06-03 20:02:00,61.3,-99.9,0.00,South,180,0.0,0.0,-20,0.00,NA,NA,-99.99,WeatherLink_script,2013-06-04 00:02:00,
2013-06-03 20:08:00,60.1,-99.9,0.00,South,180,0.1,1.0,-45,0.00,NA,NA,-99.99,WeatherLink_script,2013-06-04 00:08:00,
2013-06-03 20:13:00,60.7,-95.1,0.00,South,180,0.1,2.0,-13,0.00,NA,NA,-99.99,WeatherLink_script,2013-06-04 00:13:00,
2013-06-03 20:18:00,60.0,-99.9,0.00,South,180,0.1,2.0,-99,0.00,NA,NA,-99.99,WeatherLink_script,2013-06-04 00:18:00,
2013-06-03 20:24:00,57.1,-99.9,0.00,South,180,0.5,2.0,-99,0.00,NA,NA,-99.99,WeatherLink_script,2013-06-04 00:24:00,
2013-06-03 20:29:00,55.5,-99.9,0.00,South,180,0.0,0.0,-99,0.00,NA,NA,-99.99,WeatherLink_script,2013-06-04 00:29:00,
2013-06-03 20:34:00,55.2,-99.9,0.00,South,180,0.1,1.0,-99,0.00,NA,NA,-99.99,WeatherLink_script,2013-06-04 00:34:00,
2013-06-03 20:40:00,55.1,-99.9,0.00,South,180,0.0,1.0,-99,0.00,NA,NA,-99.99,WeatherLink_script,2013-06-04 00:40:00,
2013-06-03 20:45:00,56.6,-99.9,0.00,South,180,1.3,4.0,-99,0.00,NA,NA,-99.99,WeatherLink_script,2013-06-04 00:45:00,
2013-06-03 20:50:00,58.9,-99.9,0.00,South,180,0.3,4.0,-99,0.00,NA,NA,-99.99,WeatherLink_script,2013-06-04 00:50:00,
2013-06-03 20:56:00,59.4,-99.9,0.00,South,180,0.3,4.0,-99,0.00,NA,NA,-99.99,WeatherLink_script,2013-06-04 00:56:00,
2013-06-03 21:01:00,58.6,-99.9,0.00,South,180,0.0,0.0,-99,0.00,NA,NA,-99.99,WeatherLink_script,2013-06-04 01:01:00,
2013-06-03 21:06:00,58.4,-99.9,0.00,South,180,0.1,1.0,-99,0.00,NA,NA,-99.99,WeatherLink_script,2013-06-04 01:06:00,
2013-06-03 21:12:00,59.2,-99.9,0.00,South,180,0.4,2.0,-99,0.00,NA,NA,-99.99,WeatherLink_script,2013-06-04 01:12:00,
2013-06-03 21:17:00,58.2,-99.9,0.00,South,180,0.8,4.0,-99,0.00,NA,NA,-99.99,WeatherLink_script,2013-06-04 01:17:00,
2013-06-03 21:22:00,58.0,-99.9,0.00,South,180,0.0,4.0,-99,0.00,NA,NA,-99.99,WeatherLink_script,2013-06-04 01:22:00,
2013-06-03 21:28:00,54.5,-99.9,0.00,South,180,1.9,4.0,-99,0.00,NA,NA,-99.99,WeatherLink_script,2013-06-04 01:28:00,
2013-06-03 21:33:00,53.0,-99.9,0.00,South,180,0.5,2.0,-99,0.00,NA,NA,-99.99,WeatherLink_script,2013-06-04 01:33:00,
2013-06-03 21:38:00,52.4,-99.9,0.00,South,180,1.7,4.0,-99,0.00,NA,NA,-99.99,WeatherLink_script,2013-06-04 01:38:00,
2013-06-03 21:43:00,51.9,-99.9,0.00,South,180,1.1,4.0,-99,0.00,NA,NA,-99.99,WeatherLink_script,2013-06-04 01:43:00,
2013-06-03 21:49:00,51.9,-99.9,0.00,South,180,0.0,4.0,-99,0.00,NA,NA,-99.99,WeatherLink_script,2013-06-04 01:49:00,
2013-06-03 21:54:00,52.8,-99.9,0.00,South,180,0.1,0.0,-99,0.00,NA,NA,-99.99,WeatherLink_script,2013-06-04 01:54:00,
2013-06-03 21:59:00,51.7,-99.9,0.00,South,180,0.0,0.0,-99,0.00,NA,NA,-99.99,WeatherLink_script,2013-06-04 01:59:00,
2013-06-03 22:05:00,51.0,-99.9,0.00,South,180,1.5,2.0,-99,0.00,NA,NA,-99.99,WeatherLink_script,2013-06-04 02:05:00,
2013-06-03 22:10:00,50.4,-99.9,0.00,South,180,0.0,3.0,-99,0.00,NA,NA,-99.99,WeatherLink_script,2013-06-04 02:10:00,
2013-06-03 22:15:00,50.0,-99.9,0.00,South,180,0.0,3.0,-99,0.00,NA,NA,-99.99,WeatherLink_script,2013-06-04 02:15:00,
2013-06-03 22:21:00,49.3,-99.9,0.00,South,180,0.0,3.0,-99,0.00,NA,NA,-99.99,WeatherLink_script,2013-06-04 02:21:00,
2013-06-03 22:26:00,48.8,-99.9,0.00,South,180,0.0,0.0,-99,0.00,NA,NA,-99.99,WeatherLink_script,2013-06-04 02:26:00,
2013-06-03 22:32:00,48.4,-99.9,0.00,South,180,0.0,0.0,-99,0.00,NA,NA,-99.99,WeatherLink_script,2013-06-04 02:32:00,
2013-06-03 22:37:00,48.5,-99.9,0.00,South,180,0.0,0.0,-99,0.00,NA,NA,-99.99,WeatherLink_script,2013-06-04 02:37:00,
2013-06-03 22:42:00,48.4,-99.9,0.00,South,180,0.0,0.0,-99,0.00,NA,NA,-99.99,WeatherLink_script,2013-06-04 02:42:00,
2013-06-03 22:48:00,48.5,-99.9,0.00,South,180,0.0,0.0,-99,0.00,NA,NA,-99.99,WeatherLink_script,2013-06-04 02:48:00,
2013-06-03 22:53:00,48.4,-99.9,0.00,South,180,0.0,0.0,-99,0.00,NA,NA,-99.99,WeatherLink_script,2013-06-04 02:53:00,
2013-06-03 22:58:00,48.2,-99.9,0.00,South,180,0.0,0.0,-99,0.00,NA,NA,-99.99,WeatherLink_script,2013-06-04 02:58:00,
2013-06-03 23:04:00,47.8,-99.9,0.00,South,180,0.0,0.0,-99,0.00,NA,NA,-99.99,WeatherLink_script,2013-06-04 03:04:00,
2013-06-03 23:09:00,47.1,-99.9,0.00,South,180,0.2,1.0,-99,0.00,NA,NA,-99.99,WeatherLink_script,2013-06-04 03:09:00,
2013-06-03 23:14:00,47.8,-99.9,0.00,South,180,0.0,1.0,-99,0.00,NA,NA,-99.99,WeatherLink_script,2013-06-04 03:14:00,
2013-06-03 23:20:00,47.4,-99.9,0.00,South,180,0.4,1.0,-99,0.00,NA,NA,-99.99,WeatherLink_script,2013-06-04 03:20:00,
2013-06-03 23:25:00,47.7,-99.9,0.00,South,180,0.5,1.0,-99,0.00,NA,NA,-99.99,WeatherLink_script,2013-06-04 03:25:00,
2013-06-03 23:30:00,47.4,-99.9,0.00,South,180,0.0,0.0,-99,0.00,NA,NA,-99.99,WeatherLink_script,2013-06-04 03:30:00,
2013-06-03 23:36:00,47.1,-99.9,0.00,South,180,0.0,0.0,-99,0.00,NA,NA,-99.99,WeatherLink_script,2013-06-04 03:36:00,
2013-06-03 23:41:00,46.7,-99.9,0.00,South,180,0.0,0.0,-99,0.00,NA,NA,-99.99,WeatherLink_script,2013-06-04 03:41:00,
2013-06-03 23:47:00,46.2,-99.9,0.00,South,180,0.0,0.0,-99,0.00,NA,NA,-99.99,WeatherLink_script,2013-06-04 03:47:00,
2013-06-03 23:52:00,46.7,-99.9,0.00,South,180,0.0,0.0,-99,0.00,NA,NA,-99.99,WeatherLink_script,2013-06-04 03:52:00,
2013-06-03 23:57:00,46.4,-99.9,0.00,South,180,0.0,0.0,-99,0.00,NA,NA,-99.99,WeatherLink_script,2013-06-04 03:57:00,